Weather History for Deming, NM

Change the Weather History Date:

Wednesday, July 17, 2013

  Actual Average Record
Temperature  
Mean Temperature 75 °F 81 °F  
Max Temperature 85 °F 95 °F 103 °F (1948)
Min Temperature 64 °F 66 °F 53 °F (1987)
Cooling Degree Days 9    
Growing Degree Days 24 (Base 50)    
Moisture  
Dew Point 55 °F    
Average Humidity 53    
Maximum Humidity 73    
Minimum Humidity 32    
Precipitation  
Precipitation 0.06 in 0.07 in 0.55 in (1967)
Month to date precipitation 0.83 1.08  
Year to date precipitation 1.34 4.19  
Sea Level Pressure  
Sea Level Pressure 30.04 in    
Wind  
Wind Speed 12 mph (East)    
Max Wind Speed 28 mph    
Max Gust Speed 36 mph    
Visibility 10 miles    
Events Rain , Thunderstorm    
T = Trace of Precipitation, MM = Missing Value Source: NWS Daily Summary

Daily Weather History Graph

Daily Weather History Graph

Search for Another Location

Airport:

Trip Planner

Search our weather history database for the weather conditions in past years. The results will help you decide how hot, cold, wet, or windy it might be!

Date:

Astronomy

Jul. 17, 2013 Rise Set
Actual Time 6:16 AM MDT 8:17 PM MDT
Civil Twilight 5:48 AM MDT 8:45 PM MDT
Nautical Twilight 5:15 AM MDT 9:18 PM MDT
Astronomical Twilight 4:39 AM MDT 9:54 PM MDT
Moon 3:14 PM MDT (7/17) 1:18 AM MDT (7/17)
Length of Visible Light 14h 56m
Length of Day
14h 01m
Waxing Gibbous, 68% of the Moon is Illuminated
Jul 17
Waxing Gibbous
Jul 22
Full
Jul 29
Last Quarter
Aug 6
New
Aug 14
First Quarter

Hourly Weather History & Observations

Time (MDT) Temp. Dew Point Humidity Pressure Visibility Wind Dir Wind Speed Gust Speed Precip Events Conditions
12:53 AM 72.0 °F 52.0 °F 49% 29.98 in 10.0 mi SE 5.8 mph - N/A   Clear
1:53 AM 68.0 °F 54.0 °F 61% 30.00 in 10.0 mi ENE 11.5 mph - N/A   Scattered Clouds
2:53 AM 71.1 °F 52.0 °F 51% 29.99 in 10.0 mi ESE 8.1 mph 19.6 mph N/A   Overcast
3:53 AM 66.0 °F 53.1 °F 63% 30.00 in 10.0 mi NNE 4.6 mph - N/A   Clear
4:53 AM 64.9 °F 55.0 °F 70% 30.02 in 10.0 mi NE 8.1 mph - N/A   Clear
5:53 AM 66.0 °F 55.9 °F 70% 30.03 in 10.0 mi ENE 11.5 mph - N/A   Clear
6:53 AM 66.0 °F 55.9 °F 70% 30.05 in 10.0 mi East 10.4 mph - N/A   Partly Cloudy
7:53 AM 66.9 °F 57.0 °F 70% 30.06 in 10.0 mi East 9.2 mph - N/A   Clear
8:53 AM 71.1 °F 57.0 °F 61% 30.07 in 10.0 mi East 8.1 mph - N/A   Clear
9:53 AM 75.0 °F 54.0 °F 48% 30.06 in 10.0 mi ENE 13.8 mph - N/A   Scattered Clouds
10:53 AM 78.1 °F 53.1 °F 42% 30.05 in 10.0 mi ENE 15.0 mph 24.2 mph N/A   Clear
11:53 AM 80.1 °F 52.0 °F 38% 30.03 in 10.0 mi East 11.5 mph 20.7 mph N/A   Clear
12:53 PM 84.0 °F 51.1 °F 32% 29.99 in 10.0 mi East 17.3 mph 24.2 mph N/A   Clear
1:53 PM 82.9 °F 50.0 °F 32% 29.99 in 10.0 mi ENE 13.8 mph 19.6 mph N/A   Mostly Cloudy
2:53 PM 82.0 °F 51.1 °F 34% 29.96 in 10.0 mi East 13.8 mph 23.0 mph N/A   Mostly Cloudy
3:15 PM 73.4 °F 60.8 °F 65% 30.19 in 5.0 mi East 17.3 mph - 0.05 in Rain , Thunderstorm Light Rain
3:34 PM 73.4 °F 59.0 °F 61% 30.17 in 10.0 mi East 13.8 mph - 0.06 in Rain Light Rain
3:53 PM 70.0 °F 59.0 °F 68% 30.00 in 10.0 mi East 23.0 mph 32.2 mph 0.06 in   Mostly Cloudy
4:17 PM 69.8 °F 57.2 °F 64% 30.20 in 10.0 mi East 24.2 mph 33.4 mph N/A Thunderstorm Mostly Cloudy
4:32 PM 75.2 °F 57.2 °F 53% 30.19 in 10.0 mi East 19.6 mph 28.8 mph N/A   Partly Cloudy
4:53 PM 73.9 °F 55.9 °F 53% 30.01 in 10.0 mi East 16.1 mph 25.3 mph N/A   Clear
5:53 PM 75.9 °F 55.0 °F 48% 29.98 in 10.0 mi ESE 15.0 mph - N/A   Partly Cloudy
6:53 PM 75.0 °F 55.0 °F 50% 29.99 in 10.0 mi ESE 10.4 mph - N/A   Clear
7:53 PM 73.9 °F 55.9 °F 53% 30.01 in 10.0 mi SE 11.5 mph - N/A   Clear
8:53 PM 72.0 °F 55.0 °F 55% 30.03 in 10.0 mi SE 9.2 mph - N/A   Clear
9:53 PM 69.1 °F 55.0 °F 61% 30.05 in 10.0 mi East 12.7 mph - N/A   Clear
10:53 PM 68.0 °F 55.9 °F 65% 30.06 in 10.0 mi East 9.2 mph - N/A   Clear
11:53 PM 66.0 °F 55.9 °F 70% 30.06 in 10.0 mi East 6.9 mph - N/A   Clear